Starlink 4590

operational
NORAD ID: 53606 Int'l Des: 2022-104 Owner: SPXS Country: US Constellation: starlink
LEOCIRCULAR

关于 Starlink 4590

正在加载描述...

实时位置

正在加载3D地球...

即将过境

高度历史

Altitude vs Time

uPlot chart will show altitude changes over time

两行轨道根数

1 53606U 22104U 25304.85430533 -.00000164 00000-0 77916-5 0 9991
2 53606 53.2182 92.5962 0001409 88.1792 271.9362 15.08834644176181
Epoch: Oct 31, 2025 • Age: 24 hours

当前状态

高度 545.3 km
速度 7.60 km/s
星下点 52.86°N, 174.9°E
发射日期 Aug 28, 2022
运行时间 3.1 years
类型 internet

技术详情

分类 Payload
质量 300.00 kg
干质量 290.00 kg
总质量 300.00 kg
长度 0.20 m
直径 2.80 m
跨度 9.00 m
形状 Box + pan
制造商 SPXS
平台类型 Starlink
阶段状态 In Orbit
所有者/国家 SPXS/US

大型星座

Loading constellations...